Date,TemperatureHighF,TemperatureAvgF,TemperatureLowF,DewpointHighF,DewpointAvgF,DewpointLowF,HumidityHigh,HumidityAvg,HumidityLow,PressureMaxIn,PressureMinIn,WindSpeedMaxMPH,WindSpeedAvgMPH,GustSpeedMaxMPH,PrecipitationSumIn
2013-1-12,80.0,64.8,73.5,70.0,45.0,-99.9,85,68,69,30.14,30.10,16,-158,0,0.11
2013-1-13,84.2,64.1,73.1,73.0,40.7,-99.9,84,63,67,30.13,30.07,21,-155,0,0.00
2013-1-14,83.1,76.0,70.7,71.0,68.1,65.0,85,77,65,30.18,30.12,19,10,0,0.02
2013-1-15,83.1,76.3,73.0,72.0,68.7,66.0,83,77,68,30.14,30.05,19,11,0,0.00
2013-1-16,84.6,76.4,70.3,74.0,69.4,64.0,88,79,67,30.11,30.02,19,8,0,0.28
2013-1-17,80.7,71.5,62.2,76.0,67.9,57.0,95,88,78,30.09,29.97,31,9,0,0.29
2013-1-18,71.2,64.4,53.6,63.0,56.6,49.0,85,76,66,30.23,30.09,25,15,0,0.00
2013-1-19,73.2,70.5,67.5,70.0,65.9,62.0,95,85,72,30.21,30.11,15,7,0,0.38
2013-1-20,78.7,71.7,66.2,73.0,68.1,65.0,97,89,79,30.14,30.02,16,8,0,0.03
2013-1-21,82.9,73.2,67.2,75.0,68.8,65.0,92,86,73,30.07,29.97,19,6,0,0.13
2013-1-22,76.4,69.2,63.8,65.0,61.5,56.0,94,77,63,30.22,30.00,26,15,0,0.00
2013-1-23,74.6,68.7,62.6,61.0,57.4,54.0,82,68,57,30.30,30.20,23,12,0,0.00
2013-1-24,76.9,67.3,61.3,58.0,55.5,49.0,85,67,49,30.29,30.21,16,9,0,0.00
2013-1-25,77.4,68.4,60.5,64.0,58.1,53.0,79,70,55,30.29,30.18,12,6,0,0.00
2013-1-26,77.4,70.0,61.6,63.0,60.1,54.0,86,72,54,30.26,30.17,13,7,0,0.00
2013-1-27,78.0,72.4,65.4,66.0,63.0,60.0,85,73,59,30.29,30.20,20,9,0,0.00
2013-1-28,82.2,75.6,72.5,71.0,67.5,64.0,85,76,65,30.32,30.23,22,15,0,0.00
2013-1-29,80.7,74.9,72.1,74.0,69.8,68.0,88,84,75,30.24,30.13,21,12,0,0.08
2013-1-30,80.7,75.3,72.1,71.0,68.5,66.0,88,79,71,30.12,29.98,26,12,0,0.00
2013-1-31,74.3,67.5,59.6,71.0,60.7,45.0,94,80,54,30.18,29.95,22,10,0,0.00
2013-2-1,73.7,64.0,53.7,60.0,52.6,44.0,79,67,57,30.27,30.16,21,13,0,0.00
2013-2-2,74.8,65.8,57.5,58.0,52.0,41.0,76,61,51,30.26,30.13,14,6,0,0.00
2013-2-3,69.9,65.0,62.0,52.0,49.0,44.0,68,57,41,30.12,30.08,14,4,0,0.00
2013-2-4,77.7,65.1,51.6,58.0,52.1,45.0,80,64,41,30.14,30.04,13,5,0,0.00
2013-2-5,82.0,70.5,60.1,66.0,61.1,55.0,83,73,54,30.09,30.01,12,5,0,0.00
2013-2-6,80.9,72.3,64.8,70.0,65.2,62.0,91,79,67,30.11,30.03,19,7,0,0.00
2013-2-7,83.4,75.5,70.6,72.0,67.4,64.0,83,76,66,30.08,29.95,18,9,0,0.04
2013-2-8,82.1,74.1,69.4,71.0,67.8,62.0,92,81,58,30.04,29.91,24,9,0,0.23
2013-2-9,79.3,72.9,67.4,70.0,66.2,63.0,91,80,64,30.18,30.02,22,11,0,0.00
2013-2-10,75.2,72.3,70.2,66.0,64.4,62.0,82,76,71,30.27,30.16,25,17,0,0.00
2013-2-11,82.2,74.6,69.5,70.0,66.6,63.0,84,76,64,30.23,30.12,21,11,0,0.01
2013-2-12,82.7,75.8,71.1,73.0,69.5,66.0,88,81,70,30.12,29.98,19,7,0,0.00
2013-2-13,82.3,76.1,71.5,75.0,72.1,68.0,93,87,79,30.02,29.90,22,8,0,0.00
2013-2-14,77.3,70.8,63.8,73.0,68.4,63.0,96,92,84,30.02,29.88,30,9,0,1.23
2013-2-15,73.1,67.7,65.3,69.0,65.7,64.0,96,93,84,30.03,29.95,23,8,0,0.43
2013-2-16,71.6,65.3,56.2,65.0,58.6,47.0,96,80,57,30.09,29.88,33,16,0,0.00
2013-2-17,60.5,53.0,46.1,48.0,35.4,26.0,73,53,32,30.31,30.09,28,16,0,0.00
2013-2-18,69.0,60.3,48.8,59.0,48.8,37.0,75,66,57,30.33,30.21,25,16,0,0.00
2013-2-19,79.6,72.9,68.4,68.0,63.4,57.0,84,72,63,30.20,30.09,21,9,0,0.00
2013-2-20,78.4,71.7,65.4,71.0,66.7,64.0,95,84,71,30.12,30.02,13,5,0,0.07
2013-2-21,86.1,76.4,71.2,74.0,69.5,66.0,87,79,63,30.11,30.00,16,8,0,0.00
2013-2-22,83.5,76.8,73.1,76.0,71.8,68.0,92,84,75,30.11,30.02,23,13,0,0.51
2013-2-23,83.2,76.7,70.9,75.0,71.8,68.0,93,85,75,30.05,29.92,22,10,0,0.50
2013-2-24,87.5,77.0,72.2,79.0,73.3,71.0,96,89,70,30.00,29.91,13,6,0,0.01
2013-2-25,84.3,77.0,71.7,77.0,72.8,69.0,93,87,76,29.92,29.82,21,6,0,0.00
2013-2-26,82.7,78.1,75.3,76.0,73.5,71.0,92,86,78,29.90,29.80,26,10,0,0.01
2013-2-27,77.3,71.1,63.5,74.0,66.3,62.0,94,85,64,29.97,29.86,18,6,0,0.54
2013-2-28,70.7,65.0,60.2,64.0,56.1,49.0,95,74,47,30.01,29.91,16,8,0,0.00
2013-3-1,66.4,62.8,59.7,58.0,53.0,49.0,80,71,58,29.99,29.91,16,9,0,0.00
2013-3-2,66.5,59.0,54.3,52.0,45.8,40.0,76,62,49,30.04,29.95,37,16,0,0.00
2013-3-3,62.0,55.6,51.2,46.0,44.6,42.0,77,67,53,30.15,29.97,31,14,0,0.00
2013-3-4,65.9,55.4,44.4,49.0,42.1,37.0,78,63,39,30.21,30.12,26,10,0,0.00
2013-3-5,79.5,66.1,54.2,63.0,55.8,47.0,80,70,56,30.18,30.09,12,5,0,0.00
2013-3-6,76.3,65.7,55.2,65.0,54.5,41.0,92,70,36,30.09,29.94,30,17,0,0.00
2013-3-7,70.8,60.4,49.1,57.0,48.9,40.0,87,67,43,30.18,30.07,23,10,0,0.00
2013-3-8,73.2,64.4,55.7,57.0,54.2,51.0,89,71,53,30.20,30.11,13,8,0,0.01
2013-3-9,74.9,66.7,59.1,62.0,56.3,51.0,84,70,57,30.20,30.10,21,10,0,0.00
2013-3-10,76.0,66.3,67.6,63.0,49.4,-99.9,78,64,59,30.17,30.08,21,-52,0,0.00
2013-3-11,82.2,57.5,69.3,67.0,29.7,-99.9,79,59,59,30.11,29.96,25,-197,0,0.00
2013-3-12,79.8,69.7,71.2,73.0,57.7,-99.9,87,76,76,30.01,29.92,23,-52,0,0.00
2013-3-13,74.6,66.1,58.9,67.0,57.3,-99.9,92,76,55,30.13,29.98,21,0,0,0.00
2013-3-14,69.9,60.7,55.8,55.0,48.2,-99.9,82,68,51,30.21,30.09,25,-9,0,0.00
2013-3-15,73.5,62.6,54.5,58.0,50.3,-99.9,82,68,57,30.25,30.16,15,-12,0,0.00
2013-3-16,80.7,68.5,59.5,61.0,57.1,55.0,85,69,48,30.20,30.10,15,5,0,0.00
2013-3-17,79.8,70.5,64.2,65.0,61.1,57.0,82,73,60,30.16,30.04,19,6,0,0.13
2013-3-18,81.7,70.6,67.9,71.0,63.3,-99.9,94,82,70,30.08,29.98,20,-11,0,0.36
2013-3-19,78.3,72.0,68.2,72.0,66.9,-99.9,94,87,73,30.01,29.86,16,-8,0,0.00
2013-3-20,83.6,73.9,67.3,75.0,68.7,61.0,95,84,63,29.98,29.82,34,5,0,0.01
2013-3-21,73.5,67.1,61.9,63.0,57.6,51.0,92,73,53,29.96,29.83,20,9,0,0.06
2013-3-22,79.7,70.6,61.8,71.0,62.0,54.0,90,75,61,30.02,29.91,18,7,0,0.03
2013-3-23,84.1,77.5,72.4,78.0,73.8,70.0,94,88,79,29.99,29.81,19,6,0,0.01
2013-3-24,87.5,79.1,73.0,76.0,72.8,69.0,97,82,60,29.90,29.68,40,15,0,0.08
2013-3-25,80.0,74.0,66.7,73.0,62.7,43.0,94,71,39,29.99,29.75,22,10,0,0.00
2013-3-26,69.8,61.7,55.0,47.0,41.4,-99.9,63,49,34,30.21,29.99,32,7,0,0.00
2013-3-27,68.2,58.2,48.4,52.0,45.3,37.0,74,63,50,30.25,30.17,22,12,0,0.00
2013-3-28,71.8,62.1,52.2,55.0,47.1,-99.9,80,61,36,30.27,30.18,18,0,0,0.00
2013-3-29,75.5,65.6,57.1,57.0,52.0,-99.9,78,64,47,30.29,30.21,14,-2,0,0.04
2013-3-30,79.1,69.9,65.6,60.0,54.2,-99.9,70,60,46,30.27,30.17,14,-2,0,0.00
2013-3-31,84.3,74.1,68.3,71.0,63.4,-99.9,83,71,63,30.19,30.05,16,0,0,0.00
2013-4-1,83.9,74.2,72.4,75.0,65.5,-99.9,92,78,52,30.06,29.96,24,-12,0,0.33
2013-4-2,81.1,72.7,67.1,70.0,65.7,-99.9,95,81,65,30.09,29.99,14,-3,0,0.00
2013-4-3,79.9,75.2,72.9,71.0,69.0,68.0,85,81,72,30.07,30.01,20,11,0,0.00
2013-4-4,79.7,75.1,69.2,74.0,70.6,68.0,95,86,79,30.05,29.91,27,11,0,0.51
2013-4-5,74.3,69.8,66.9,72.0,66.4,65.0,92,89,82,29.99,29.83,30,10,0,0.44
2013-4-6,75.0,68.1,60.5,66.0,60.8,-99.9,92,80,65,30.09,29.93,21,2,0,0.01
2013-4-7,76.8,74.0,71.8,66.0,64.1,62.0,77,71,64,30.15,30.03,21,13,0,0.00
2013-4-8,82.3,75.3,68.7,67.0,63.8,61.0,78,68,54,30.15,30.05,14,8,0,0.00
2013-4-9,82.9,76.3,73.2,70.0,68.1,66.0,84,76,60,30.16,30.06,21,14,0,0.00
2013-4-10,84.6,77.8,73.9,74.0,71.1,68.0,87,80,70,30.11,30.00,22,13,0,0.00
2013-4-11,80.5,77.4,75.7,74.0,72.2,71.0,89,84,78,30.03,29.91,22,16,0,0.00
2013-4-12,86.8,80.2,77.0,80.0,75.9,73.0,92,87,77,29.96,29.88,21,9,0,0.01
2013-4-13,84.1,77.1,73.4,78.0,73.6,69.0,95,89,75,29.97,29.89,12,5,0,0.39
2013-4-14,88.6,80.7,73.4,80.0,76.1,70.0,95,86,73,29.98,29.91,14,8,0,0.19
2013-4-15,89.9,79.0,71.7,81.0,72.9,-99.9,94,85,71,30.05,29.93,24,-8,0,0.66